GALAXY 35 (G-35)

Last updated on Tue Sep 22 2026 00:03:16 GMT+0000 (Coordinated Universal Time)

1 54741U 22170A 26264.48324499 -.00000166 00000+0 00000+0 0 9998 2 54741 0.0143 187.9642 0002019 345.8684 267.4098 1.00271673 13858
UTC large
Height (km)
Speed (km/s)
/
Latitude / Longitude
Inclination (degrees)
Orbital Period (minutes)
Azimuth
Elevation
Range (km)
Doppler Factor

Next 0 passes for location: London (51.5072 / 0.1276)

No passes found over London.
GALAXY 35 (G-35)